Location: *
(32.8140°S, 174.6161°E)
Time: 01:48:52
(UTC+00:00)

Cosmos 1269 Rocket - Pass Details

Date: 10 December 2019
Orbit: 773 x 778 km, 74.1° (Epoch: 25 January)

Event Time Altitude Azimuth Distance (km) Brightness Sun altitude
Exits shadow 16:03:24 - 352° (N) 2,658 6.4 -12.0°
Reaches altitude 10° 16:04:17 10° 353° (N) 2,317 6.1 -11.8°
Maximum altitude 16:09:31 71° 75° (ENE) 826 4.3 -10.9°
Drops below altitude 10° 16:14:50 10° 158° (SSE) 2,348 7.5 -10.0°
Sets 16:17:15 0° 160° (SSE) 3,283 8.3 -9.6°
